Craig, CO

4:21 PM MST on November 24, 2017 (GMT -0700)
Craig-Moffat

Weather History for KCAG - February, 2013

Change the Weather History Date:

Wednesday, February 6, 2013

  Actual Average Record
Temperature  
Mean Temperature 26 °F 18 °F  
Max Temperature 38 °F 32 °F 55 °F (2015)
Min Temperature 13 °F 5 °F -17 °F (2016)
Degree Days  
Heating Degree Days 39 47  
Month to date heating degree days 271 282  
Since 1 July heating degree days 5245 5366  
Cooling Degree Days 0 0  
Month to date cooling degree days 0 0  
Year to date cooling degree days 0 0  
Moisture  
Dew Point 24 °F    
Average Humidity 76    
Maximum Humidity 88    
Minimum Humidity 64    
Precipitation  
Precipitation T in 0.03 in 0.13 in (2008)
Month to date precipitation T 0.17  
Year to date precipitation 0.71 1.05  
Sea Level Pressure  
Sea Level Pressure 30.06 in    
Wind  
Wind Speed 3 mph (SE)    
Max Wind Speed 15 mph    
Max Gust Speed 17 mph    
Visibility 8 miles    
Events Snow    
T = Trace of Precipitation, MM = Missing Value Source: NWS Daily Summary

Daily Weather History Graph

Daily Weather History Graph

Search for Another Location

Airport or City:

Trip Planner

Search our weather history database for the weather conditions in past years. The results will help you decide how hot, cold, wet, or windy it might be!

Date:

Astronomy

Feb. 06, 2013 Rise Set
Actual Time 7:14 AM MST 5:34 PM MST
Civil Twilight 6:45 AM MST 6:03 PM MST
Nautical Twilight 6:13 AM MST 6:35 PM MST
Astronomical Twilight 5:41 AM MST 7:07 PM MST
Moon 4:01 AM MST (2/6) 1:55 PM MST (2/6)
Length of Visible Light 11h 17m
Length of Day
10h 20m
Waning Crescent, 16% of the Moon is Illuminated
Feb 6
Waning Crescent
Feb 10
New
Feb 17
First Quarter
Feb 25
Full
Mar 4
Last Quarter

Hourly Weather History & Observations

Time (MST) Temp. Windchill Dew Point Humidity Pressure Visibility Wind Dir Wind Speed Gust Speed Precip Events Conditions
12:53 AM 28.9 °F - 21.9 °F 75% 30.00 in 10.0 mi Calm Calm - N/A   Overcast
1:53 AM 28.9 °F - 23.0 °F 78% 29.96 in 10.0 mi Calm Calm - N/A   Overcast
2:53 AM 28.9 °F - 21.9 °F 75% 29.98 in 10.0 mi Calm Calm - N/A   Overcast
3:53 AM 28.0 °F 22.8 °F 21.0 °F 75% 29.94 in 10.0 mi ESE 4.6 mph - N/A   Partly Cloudy
4:53 AM 27.0 °F 23.0 °F 21.0 °F 78% 29.98 in 10.0 mi West 3.5 mph - N/A   Mostly Cloudy
5:53 AM 27.0 °F - 21.0 °F 78% 29.99 in 10.0 mi Calm Calm - N/A   Mostly Cloudy
6:53 AM 28.0 °F - 21.0 °F 75% 29.99 in 10.0 mi Calm Calm - N/A   Overcast
7:53 AM 26.1 °F - 21.9 °F 84% 30.02 in 10.0 mi Calm Calm - N/A   Overcast
8:53 AM 30.9 °F - 21.9 °F 69% 30.02 in 10.0 mi Calm Calm - N/A   Overcast
9:53 AM 32.0 °F 28.7 °F 23.0 °F 69% 30.03 in 10.0 mi East 3.5 mph - N/A   Overcast
10:35 AM 35.6 °F 29.2 °F 26.6 °F 70% 29.99 in 2.5 mi ENE 8.1 mph - 0.00 in Snow Light Snow
10:41 AM 33.8 °F 26.4 °F 28.4 °F 81% 29.99 in 1.0 mi East 9.2 mph - 0.00 in Snow Light Snow
10:45 AM 33.8 °F 27.0 °F 28.4 °F 81% 29.99 in 0.8 mi East 8.1 mph - N/A Snow Light Snow
10:53 AM 33.1 °F 27.7 °F 28.9 °F 85% 30.06 in 1.0 mi East 5.8 mph - 0.00 in Snow Light Snow
10:57 AM 33.8 °F 29.6 °F 30.2 °F 87% 29.99 in 1.2 mi East 4.6 mph - 0.00 in Snow Light Snow
11:06 AM 33.8 °F - 30.2 °F 87% 29.99 in 3.0 mi Calm Calm - 0.00 in Snow Light Snow
11:53 AM 36.0 °F 32.1 °F 28.9 °F 76% 30.02 in 10.0 mi Variable 4.6 mph - 0.00 in   Overcast
12:53 PM 37.0 °F - 28.0 °F 70% 30.01 in 10.0 mi Calm Calm - N/A   Overcast
1:53 PM 37.0 °F - 28.0 °F 70% 30.01 in 10.0 mi Calm Calm - N/A   Overcast
2:53 PM 37.0 °F 31.6 °F 26.1 °F 65% 30.03 in 10.0 mi West 6.9 mph - N/A   Overcast
3:53 PM 36.0 °F 32.1 °F 26.1 °F 67% 30.05 in 10.0 mi SSW 4.6 mph - 0.00 in   Overcast
4:53 PM 35.1 °F 27.9 °F 24.1 °F 64% 30.07 in 10.0 mi SSW 9.2 mph - N/A   Overcast
5:53 PM 34.0 °F 26.0 °F 26.1 °F 73% 30.09 in 10.0 mi South 10.4 mph - N/A   Overcast
6:53 PM 33.1 °F 26.9 °F 25.0 °F 72% 30.12 in 10.0 mi West 6.9 mph - N/A   Overcast
7:53 PM 28.9 °F - 23.0 °F 78% 30.17 in 10.0 mi Calm Calm - N/A   Clear
8:53 PM 25.0 °F - 21.0 °F 85% 30.19 in 10.0 mi Calm Calm - N/A   Clear
9:53 PM 21.9 °F - 18.0 °F 85% 30.22 in 10.0 mi Calm Calm - N/A   Clear
10:53 PM 17.1 °F - 14.0 °F 88% 30.27 in 10.0 mi Calm Calm - N/A   Clear
11:53 PM 12.9 °F 6.9 °F 10.0 °F 88% 30.29 in 10.0 mi Variable 3.5 mph - N/A   Clear